Hourly Data Report for October 17, 2014

All times are specified in Local Standard Time (LST). Add 1 hour to adjust for Daylight Saving Time where and when it is observed.

POND INLET A
NUNAVUT

72°41'22.000" N
77°58'08.000" W
61.60 m
2403206
71095
YIO

Download Data

Hourly Data (October 2014)
Hourly Data Report for October 17, 2014
Temp Definition
°C
Dew Point Temp Definition
°C
Rel Hum Definition
%
Wind Dir Definition
10's deg

Wind Spd Definition
km/h
Visibility Definition
km
Stn Press Definition
kPa
Hmdx Definition


Wind Chill Definition


Weather Definition


TIME
00:00 Legend Double Dagger -9.0 -11.5 82 14 11 16.1 100.91   -14 LegendNANA
01:00 Legend Double Dagger -8.6 -11.5 80 13 9 16.1 100.95   -13 LegendNANA
02:00 Legend Double Dagger -8.2 -11.3 79 14 8 16.1 100.98   -12 LegendNANA
03:00 Legend Double Dagger -9.5 -12.0 82 13 11 16.1 101.02   -15 LegendNANA
04:00 Legend Double Dagger -8.9 -11.7 80 13 11 16.1 101.06   -14 LegendNANA
05:00 Legend Double Dagger -8.6 -10.8 84 14 8 16.1 101.08   -13 LegendNANA
06:00 Legend Double Dagger -7.0 -9.5 82 15 5 16.1 101.12   -10 LegendNANA
07:00 Legend Double Dagger -6.9 -9.2 84 14 9 16.1 101.13   -11 LegendNANA
08:00 Legend Double Dagger -6.7 -8.6 86 16 11 16.1 101.13   -12 LegendNANA
09:00 Legend Double Dagger -6.1 -8.3 85 15 11 16.1 101.16   -11 LegendNANA
10:00 Legend Double Dagger -5.5 -8.3 81 14 13 16.1 101.15   -11 LegendNANA
11:00 Legend Double Dagger -5.3 -7.8 83 15 11 16.1 101.17   -10 LegendNANA
12:00 Legend Double Dagger -5.1 -7.5 84 15 9 16.1 101.19   -9 LegendNANA
13:00 Legend Double Dagger -4.9 -7.6 82 16 11 16.1 101.20   -9 LegendNANA
14:00 Legend Double Dagger -5.2 -7.5 84 17 13 16.1 101.22   -10 Snow
15:00 Legend Double Dagger -6.1 -8.5 83 17 18 16.1 101.23   -13 LegendNANA
16:00 Legend Double Dagger -8.4 -10.9 82 17 21 16.1 101.24   -16 LegendNANA
17:00 Legend Double Dagger -9.0 -11.5 83 16 28 16.1 101.22   -18 LegendNANA
18:00 Legend Double Dagger -7.3 -10.2 80 17 26 16.1 101.24   -15 LegendNANA
19:00 Legend Double Dagger -8.4 -11.5 79 15 24 16.1 101.23   -17 LegendNANA
20:00 Legend Double Dagger -8.1 -11.0 80 15 26 16.1 101.23   -16 LegendNANA
21:00 Legend Double Dagger -7.0 -10.3 77 15 21 16.1 101.22   -14 LegendNANA
22:00 Legend Double Dagger -7.2 -10.3 79 15 22 16.1 101.19   -15 Snow
23:00 Legend Double Dagger -6.8 -9.9 79 16 18 16.1 101.16   -13 LegendNANA

Notes on Data Quality.

Legend

  • E = Estimated
  • M = Missing
  • NA = Not Available
  • ‡ = Partner data that is not subject to review by the National Climate Archives
Date modified: